Voltar ao catálogo

STARLINK-35684

AtivoComunicaçõesVLEO
NORAD 66458·PAYLOAD·🇺🇸 United States

Lançado Nov 15, 2025 de Cape Canaveral Space Force Station

Loading…

Próximas Passagens (próximas 24 horas)

TLE

AtualizadoSource: CelesTrak SupGP

Época: Sep 14, 2026, 21:29 UTC

1 66458C 25262C   26257.89562500 -.00019485  00000+0 -70577-3 0  2577
2 66458  43.0019 307.8770 0001440 266.3349 331.9435 15.27587289    15

Acompanhe STARLINK-35684 em tempo real com AllMySat

Download on the App Store